Date String (YYYY-MM-DD hh:mm:ss) UTC,Instrument flags,Ambient pressure (hPa),Sample flow (lpm),Bypass flow (lpm),Sample temperature (°C),Ambient temperature (°C),ASC tube jacket temperature (°C),LED temperature (°C),Box temperature (°C),Sample RH (%),Span deviation,Mass concentration (μg/m³),Mass concentration (μg/m³),Mass concentration (μg/m³)
DateTimeUTC,F1_M11,P_M11,Q1_M11,Q2_M11,T1_M11,T2_M11,T3_M11,T4_M11,T5_M11,U1_M11,ZSPAN_M11,X0_M11,X2_M11,X1_M11
2022-06-03 16:00:00,,0824.2,5.00,0.00,29.6,28.2,00.0,38.6,31.5,27.6,-001.5,0016.10,0010.10,0009.25
2022-06-03 16:01:00,,0824.2,5.00,0.00,29.6,28.3,00.0,38.6,31.5,27.4,-001.3,0017.13,0010.13,0009.26
2022-06-03 16:02:00,,0824.2,5.01,0.00,29.7,28.4,00.0,38.6,31.5,27.5,-001.1,0017.76,0010.13,0009.27
2022-06-03 16:03:00,,0824.1,4.99,0.00,29.7,28.5,00.0,38.6,31.6,27.4,-001.0,0017.85,0010.15,0009.28
2022-06-03 16:04:00,,0824.2,5.00,0.00,29.7,28.6,00.0,38.6,31.6,27.6,-001.2,0017.64,0010.06,0009.27
2022-06-03 16:05:00,,0824.2,5.01,0.00,29.7,28.7,00.0,38.6,31.6,27.3,-001.7,0018.20,0010.08,0009.25
2022-06-03 16:06:00,,0824.2,5.01,0.00,29.7,28.7,00.0,38.6,31.7,27.2,-001.5,0019.26,0010.13,0009.27
2022-06-03 16:07:00,,0824.2,4.99,0.00,29.8,28.8,00.0,38.6,31.7,27.2,-001.4,0019.08,0010.08,0009.25
2022-06-03 16:08:00,,0824.2,5.00,0.00,29.8,28.9,00.0,38.6,31.7,27.3,-001.5,0018.57,0010.04,0009.25
2022-06-03 16:09:00,,0824.2,5.00,0.00,29.8,28.9,00.0,38.6,31.8,26.9,-001.3,0018.91,0010.05,0009.24
2022-06-03 16:10:00,,0824.1,5.01,0.00,29.8,28.6,00.0,38.6,31.7,27.4,-001.3,0018.99,0010.06,0009.23
2022-06-03 16:11:00,,0824.1,4.99,0.00,29.8,27.8,00.0,38.5,31.5,26.5,-001.6,0018.52,0010.04,0009.23
2022-06-03 16:12:00,,0824.2,5.01,0.00,29.7,27.4,00.0,38.5,31.4,26.5,-001.8,0017.60,0010.04,0009.25
2022-06-03 16:13:00,,0824.1,4.99,0.00,29.6,27.3,00.0,38.5,31.3,27.3,-001.7,0016.98,0010.07,0009.25
2022-06-03 16:14:00,,0824.1,5.01,0.00,29.6,27.4,00.0,38.5,31.3,27.2,-001.8,0016.67,0009.99,0009.18
2022-06-03 16:15:00,,0824.1,5.00,0.00,29.5,27.5,00.0,38.5,31.3,26.1,-001.3,0016.72,0010.01,0009.15
2022-06-03 16:16:00,,0824.1,5.00,0.00,29.5,27.7,00.0,38.5,31.3,26.5,-000.9,0017.03,0009.93,0009.12
2022-06-03 16:17:00,,0824.1,5.00,0.00,29.5,27.9,00.0,38.4,31.4,27.0,-001.1,0016.56,0009.81,0009.06
2022-06-03 16:18:00,,0824.1,5.00,0.00,29.5,28.0,00.0,38.4,31.4,27.0,-000.9,0017.57,0009.78,0009.03
2022-06-03 16:19:00,,0824.1,5.00,0.00,29.5,28.1,00.0,38.4,31.4,26.7,-001.1,0017.57,0009.81,0009.03
2022-06-03 16:20:00,,0824.1,5.00,0.00,29.6,28.3,00.0,38.4,31.5,26.8,-001.2,0017.16,0009.80,0009.05
2022-06-03 16:21:00,,0824.1,5.00,0.00,29.6,28.4,00.0,38.5,31.5,27.2,-001.2,0017.10,0009.81,0009.08
2022-06-03 16:22:00,,0824.1,5.00,0.00,29.6,28.5,00.0,38.5,31.6,27.1,-001.1,0016.87,0009.83,0009.07
2022-06-03 16:23:00,,0824.1,5.00,0.00,29.6,28.6,00.0,38.5,31.6,27.2,-000.8,0016.66,0009.82,0009.05
2022-06-03 16:24:00,,0824.1,4.99,0.00,29.7,28.7,00.0,38.5,31.6,27.4,-000.9,0016.61,0009.79,0009.03
2022-06-03 16:25:00,,0824.1,4.99,0.00,29.7,28.7,00.0,38.5,31.7,27.0,-000.8,0016.75,0009.84,0009.05
2022-06-03 16:26:00,,0824.1,5.00,0.00,29.7,28.8,00.0,38.5,31.7,27.4,-001.3,0017.23,0009.86,0009.07
2022-06-03 16:27:00,,0824.1,5.00,0.00,29.7,28.9,00.0,38.5,31.7,27.4,-001.2,0016.67,0009.93,0009.10
2022-06-03 16:28:00,,0824.1,5.01,0.00,29.8,28.9,00.0,38.5,31.7,27.2,-001.0,0015.99,0009.97,0009.11
2022-06-03 16:29:00,,0824.1,5.00,0.00,29.8,28.3,00.0,38.5,31.6,26.1,-001.0,0014.90,0009.98,0009.12
2022-06-03 16:30:00,,0824.1,5.00,0.00,29.7,27.6,00.0,38.4,31.4,26.1,-000.6,0015.11,0009.92,0009.07
2022-06-03 16:31:00,,0824.1,4.99,0.00,29.6,27.3,00.0,38.4,31.3,26.8,-000.7,0015.40,0009.86,0009.02
2022-06-03 16:32:00,,0824.1,5.00,0.00,29.5,27.3,00.0,38.4,31.3,26.2,-000.4,0015.92,0009.84,0008.99
2022-06-03 16:33:00,,0824.1,5.00,0.00,29.5,27.5,00.0,38.4,31.3,26.1,-000.1,0016.00,0009.85,0009.00
2022-06-03 16:34:00,,0824.1,5.00,0.00,29.5,27.6,00.0,38.4,31.3,26.6,-000.4,0016.10,0009.80,0008.99
2022-06-03 16:35:00,,0824.0,5.01,0.00,29.5,27.8,00.0,38.4,31.3,27.0,-000.4,0016.89,0009.77,0008.98
2022-06-03 16:36:00,,0824.0,4.99,0.00,29.5,27.9,00.0,38.4,31.3,27.7,-000.3,0016.95,0009.78,0008.99
2022-06-03 16:37:00,,0824.1,5.00,0.00,29.5,28.1,00.0,38.4,31.4,27.1,-000.3,0016.60,0009.78,0008.99
2022-06-03 16:38:00,,0824.1,5.00,0.00,29.5,28.2,00.0,38.4,31.4,26.9,-000.2,0016.18,0009.78,0009.01
2022-06-03 16:39:00,,0824.1,4.99,0.00,29.5,28.3,00.0,38.4,31.5,27.2,-000.4,0016.17,0009.79,0009.04
2022-06-03 16:40:00,,0824.1,5.00,0.00,29.5,28.4,00.0,38.4,31.5,27.9,-000.5,0016.23,0009.83,0009.08
2022-06-03 16:41:00,,0824.0,5.01,0.00,29.6,28.5,00.0,38.4,31.5,27.4,-000.4,0016.33,0009.90,0009.14
2022-06-03 16:42:00,,0824.1,5.00,0.00,29.6,28.6,00.0,38.4,31.5,28.3,-000.4,0016.33,0009.97,0009.19
2022-06-03 16:43:00,,0824.0,5.00,0.00,29.6,28.7,00.0,38.4,31.6,28.3,-000.5,0015.85,0009.98,0009.22
2022-06-03 16:44:00,,0824.1,5.00,0.00,29.6,28.7,00.0,38.5,31.6,27.2,-000.8,0015.81,0010.02,0009.26
2022-06-03 16:45:00,,0824.1,5.00,0.00,29.7,28.8,00.0,38.5,31.7,28.2,-000.8,0016.41,0010.10,0009.32
2022-06-03 16:46:00,,0824.1,5.00,0.00,29.7,28.3,00.0,38.4,31.6,28.6,-000.9,0015.50,0010.15,0009.34
2022-06-03 16:47:00,,0824.1,5.01,0.00,29.6,27.6,00.0,38.3,31.3,28.3,-001.0,0015.38,0010.14,0009.35
2022-06-03 16:48:00,,0824.1,4.98,0.00,29.5,27.3,00.0,38.3,31.2,27.4,-001.2,0015.38,0010.15,0009.36
2022-06-03 16:49:00,,0824.1,5.01,0.00,29.5,27.3,00.0,38.3,31.2,27.3,-001.2,0015.50,0010.19,0009.36
2022-06-03 16:50:00,,0824.1,5.00,0.00,29.4,27.4,00.0,38.3,31.2,27.0,-001.4,0015.48,0010.25,0009.40
2022-06-03 16:51:00,,0824.1,5.00,0.00,29.4,27.5,00.0,38.3,31.2,27.1,-001.7,0016.01,0010.27,0009.41
2022-06-03 16:52:00,,0824.1,5.01,0.00,29.4,27.6,00.0,38.3,31.2,27.2,-001.8,0015.88,0010.34,0009.45
2022-06-03 16:53:00,,0824.1,4.99,0.00,29.4,27.8,00.0,38.3,31.2,27.1,-001.8,0015.67,0010.40,0009.49
2022-06-03 16:54:00,,0824.1,5.01,0.00,29.4,27.9,00.0,38.3,31.3,27.1,-001.5,0015.89,0010.47,0009.53
2022-06-03 16:55:00,,0824.1,5.01,0.00,29.4,28.0,00.0,38.3,31.3,27.4,-001.1,0015.99,0010.52,0009.55
2022-06-03 16:56:00,,0824.1,5.01,0.00,29.4,28.2,00.0,38.3,31.3,27.3,-001.3,0015.52,0010.56,0009.61
2022-06-03 16:57:00,,0824.0,4.99,0.00,29.4,28.3,00.0,38.3,31.4,26.7,-001.5,0016.18,0010.66,0009.71
2022-06-03 16:58:00,,0824.0,4.98,0.00,29.5,28.4,00.0,38.3,31.4,26.2,-001.6,0017.14,0010.71,0009.76
2022-06-03 16:59:00,,0824.0,4.99,0.00,29.5,28.4,00.0,38.3,31.4,26.8,-001.4,0017.06,0010.70,0009.79
